Stations météo

réclame
Mon MeteoGroup
Vinga, Suède (2516): Température de l'air & dewpoint: 14.04.2018 22:00:00 - 20.04.2018 22:00:00 (CEST)Vinga, Suède (2516): Vitesse du vent & gusts: 14.04.2018 22:00:00 - 20.04.2018 22:00:00 (CEST)Vinga, Suède (2516): Direction du vent: 14.04.2018 22:00:00 - 20.04.2018 22:00:00 (CEST)Vinga, Suède (2516): reduced air pressure: 14.04.2018 22:00:00 - 20.04.2018 22:00:00 (CEST)Vinga, Suède (2516): visibility: 14.04.2018 22:00:00 - 20.04.2018 22:00:00 (CEST)Vinga, Suède (2516): Quantités de précipitations: 14.04.2018 22:00:00 - 20.04.2018 22:00:00 (CEST)
Date & Time tt [°C] td [°C] ff [km/h] ff [knt] fx [km/h] fx [knt] dd ppp [hPa] vv [km] rr [mm]
20.04.2018 22:00:00 - - - - - - - - - -
20.04.2018 21:00:00 11,3 7,2 24 13 31 17 WSW 1013,4 7 0,0
20.04.2018 20:00:00 9,5 6,9 13 7 24 13 WSW 1013,3 4,6 0,0
20.04.2018 19:00:00 12,3 8,2 13 7 21 11 W 1013,8 7 0,0
20.04.2018 18:00:00 12,2 9,0 11 6 25 13 W 1014,3 7 0,0
20.04.2018 17:00:00 9,9 7,8 21 11 35 19 SSW 1014,5 6 0,0
20.04.2018 16:00:00 9,4 7,7 29 16 36 20 S 1015,1 5 0,0
20.04.2018 15:00:00 9,5 7,8 34 18 39 21 S 1016,1 4,6 0,0
20.04.2018 14:00:00 9,0 7,4 26 14 34 18 SSE 1017,5 4,1 0,0
20.04.2018 13:00:00 9,3 7,4 27 15 37 20 SSE 1018,5 4,4 0,0
20.04.2018 12:00:00 9,0 7,4 27 15 36 19 SSE 1019,5 4,0 0,0
20.04.2018 11:00:00 8,6 7,4 30 16 37 20 SSE 1019,9 3,3 0,0
20.04.2018 10:00:00 8,1 7,0 29 15 34 18 SSE 1020,6 3,8 0,0
20.04.2018 09:00:00 7,8 6,9 24 13 36 19 SSE 1021,5 4,5 0,0
20.04.2018 08:00:00 7,9 7,0 32 17 39 21 S 1021,8 4,6 0,0
20.04.2018 07:00:00 7,9 7,0 29 16 36 20 S 1022,2 4,0 0,0
20.04.2018 06:00:00 7,9 7,3 23 13 33 18 SSE 1023,0 3,6 0,0
20.04.2018 05:00:00 8,0 7,4 26 14 34 18 SSE 1023,7 5 0,0
20.04.2018 04:00:00 8,4 7,5 31 17 35 19 S 1024,3 9 0,0
20.04.2018 03:00:00 8,1 7,3 27 15 35 19 S 1025,0 7 0,0
20.04.2018 02:00:00 8,6 8,0 32 17 37 20 SSE 1025,5 8 0,0
20.04.2018 01:00:00 8,2 7,9 22 12 25 14 SSE 1026,4 8 0,0
20.04.2018 00:00:00 8,7 8,4 18 10 23 12 SSE 1027,0 9 0,0
19.04.2018 23:00:00 9,4 9,4 19 10 23 12 SSE 1027,3 11 0,0
19.04.2018 22:00:00 8,4 8,4 16 8 22 12 SSE 1028,0 39 0,0
19.04.2018 21:00:00 7,7 7,7 14 7 16 9 SE 1028,3 50 0,0
19.04.2018 20:00:00 7,4 7,4 12 6 15 8 SSE 1028,7 0,4 0,0
19.04.2018 19:00:00 8,6 8,6 11 6 18 10 SSE 1029,5 0,1 0,0
19.04.2018 18:00:00 9,2 9,1 13 7 16 9 SSE 1030,0 0,4 0,0
19.04.2018 17:00:00 9,6 9,1 9 5 11 6 S 1030,3 1,0 0,0
19.04.2018 16:00:00 9,6 8,8 6 3 8 5 SSE 1030,9 2,4 0,0
19.04.2018 15:00:00 9,8 9,0 5 3 9 5 S 1031,6 1,1 0,0
19.04.2018 14:00:00 9,1 8,6 5 3 8 4 SSW 1031,8 1,0 0,0
19.04.2018 13:00:00 9,4 8,8 4 2 9 5 SW 1031,9 1,2 0,0
19.04.2018 12:00:00 8,7 8,6 4 2 8 5 SW 1031,9 0,9 0,0
19.04.2018 11:00:00 8,5 8,5 5 3 7 4 WSW 1031,7 0,7 0,0
19.04.2018 10:00:00 9,0 9,0 4 2 11 6 W 1031,6 0,4 0,0
19.04.2018 09:00:00 8,2 8,2 10 5 12 7 WSW 1031,6 0,2 0,0
19.04.2018 08:00:00 7,4 7,4 6 4 10 6 SSW 1031,5 0,3 0,0
19.04.2018 07:00:00 7,7 7,7 7 4 11 6 S 1031,0 1,1 0,0
19.04.2018 06:00:00 7,3 7,3 7 4 13 7 S 1030,9 0,3 0,0
19.04.2018 05:00:00 7,7 7,7 10 5 12 6 SSE 1030,9 0,4 0,0
19.04.2018 04:00:00 7,6 7,6 5 3 9 5 S 1031,0 0,5 0,0
19.04.2018 03:00:00 8,1 8,1 4 2 14 7 W 1031,0 2,1 0,0
19.04.2018 02:00:00 7,9 7,9 4 2 25 13 ENE 1030,9 1,9 0,0
19.04.2018 01:00:00 7,1 7,1 18 10 29 16 W 1030,5 0,8 0,0
19.04.2018 00:00:00 6,9 6,9 21 11 29 16 W 1030,3 1,5 0,0
18.04.2018 23:00:00 7,9 7,3 19 10 25 13 W 1030,0 4,9 0,0
18.04.2018 22:00:00 8,3 7,1 9 5 17 9 WSW 1030,5 6 0,0
18.04.2018 21:00:00 8,2 7,3 5 3 9 5 S 1030,5 4,7 0,0
18.04.2018 20:00:00 8,5 7,1 7 4 11 6 SW 1030,0 6 0,0
18.04.2018 19:00:00 9,0 7,3 7 4 12 6 SSE 1029,6 7 0,0
18.04.2018 18:00:00 9,4 7,7 5 3 8 4 SSE 1029,7 5 0,0
18.04.2018 17:00:00 9,8 7,1 4 2 7 4 SSW 1029,7 7 0,0
18.04.2018 16:00:00 9,0 7,3 4 2 9 5 SSW 1029,3 6 0,0
18.04.2018 15:00:00 10,2 7,1 6 3 13 7 NW 1029,3 7 0,0
18.04.2018 14:00:00 9,4 7,5 5 3 14 7 S 1029,0 4,3 0,0
18.04.2018 13:00:00 10,2 7,4 4 2 13 7 SSE 1028,5 8 0,0
18.04.2018 12:00:00 9,8 7,7 6 3 12 6 WNW 1027,7 7 0,0
18.04.2018 11:00:00 7,8 6,7 5 3 18 10 WSW 1027,5 6 0,0
18.04.2018 10:00:00 7,8 7,2 11 6 21 12 W 1027,0 7 0,0
18.04.2018 09:00:00 7,3 6,4 21 11 29 16 SW 1025,9 8 0,0
18.04.2018 08:00:00 7,3 6,1 24 13 29 16 SW 1025,4 8 0,0
18.04.2018 07:00:00 7,5 6,1 29 16 35 19 SSW 1025,1 8 0,0
18.04.2018 06:00:00 7,3 5,9 31 17 36 19 S 1024,5 10 0,0
18.04.2018 05:00:00 7,4 5,7 30 16 35 19 S 1024,8 12 0,0
18.04.2018 04:00:00 7,7 5,7 28 15 41 22 S 1025,0 13 0,0
18.04.2018 03:00:00 7,4 5,7 29 16 35 19 S 1024,7 11 0,2
18.04.2018 02:00:00 7,1 5,7 23 12 26 14 S 1025,1 8 0,0
18.04.2018 01:00:00 6,4 5,8 22 12 25 14 SSE 1025,2 4,2 0,0
18.04.2018 00:00:00 6,3 5,9 23 12 26 14 SSE 1025,0 3,7 0,0
17.04.2018 23:00:00 6,3 5,9 20 11 24 13 SSE 1025,0 3,3 0,0
17.04.2018 22:00:00 6,4 6,1 21 11 25 13 S 1025,0 3,0 0,0
17.04.2018 21:00:00 6,6 6,2 19 11 24 13 SSE 1024,6 4,5 0,0
17.04.2018 20:00:00 6,4 6,3 16 9 19 10 SSE 1024,4 3,9 0,0
17.04.2018 19:00:00 6,4 6,4 13 7 16 8 SSE 1024,6 4,3 0,0
17.04.2018 18:00:00 6,7 6,7 10 6 16 9 SSE 1024,8 0,1 0,0
17.04.2018 17:00:00 6,6 6,3 12 6 16 9 S 1024,5 0,8 0,0
17.04.2018 16:00:00 7,2 6,5 10 5 12 7 SSE 1024,0 9 0,0
17.04.2018 15:00:00 7,0 6,6 9 5 11 6 SSE 1023,9 7 0,0
17.04.2018 14:00:00 7,6 7,6 5 3 9 5 NNW 1023,5 8 0,0
17.04.2018 13:00:00 6,3 6,3 4 2 10 5 SW 1023,4 0,9 0,0
17.04.2018 12:00:00 6,1 6,1 5 3 10 6 SSW 1023,1 0,8 0,0
17.04.2018 11:00:00 6,1 6,1 4 2 12 6 WNW 1022,3 0,7 0,0
17.04.2018 10:00:00 5,8 5,8 9 5 13 7 SW 1021,7 1,2 0,0
17.04.2018 09:00:00 5,5 5,5 11 6 21 11 WSW 1021,0 0,4 0,0
17.04.2018 08:00:00 5,5 5,5 14 8 23 12 W 1020,5 0,4 0,0
17.04.2018 07:00:00 5,8 5,8 18 10 27 14 WNW 1019,8 3,4 0,0
17.04.2018 06:00:00 6,2 6,2 12 6 18 10 WNW 1019,0 0,2 0,0
17.04.2018 05:00:00 6,3 6,0 10 6 13 7 SW 1018,9 2,4 0,0
17.04.2018 04:00:00 6,5 6,2 11 6 16 9 S 1018,4 2,3 0,0
17.04.2018 03:00:00 6,6 6,2 11 6 15 8 S 1018,4 4,0 0,0
17.04.2018 02:00:00 6,9 6,3 8 5 12 7 SSE 1018,0 4,2 0,0
17.04.2018 01:00:00 7,2 6,5 9 5 12 6 ESE 1017,7 6 0,0
17.04.2018 00:00:00 7,0 6,3 8 5 11 6 E 1017,4 7 0,0
16.04.2018 23:00:00 6,8 6,1 8 5 10 6 E 1017,2 8 0,0
16.04.2018 22:00:00 6,1 5,7 6 4 8 4 NE 1016,9 11 0,0
16.04.2018 21:00:00 5,3 5,0 4 2 8 4 NE 1016,9 13 0,0
16.04.2018 20:00:00 5,2 5,1 6 3 7 4 SSW 1016,3 7 0,0
16.04.2018 19:00:00 5,7 5,7 3 1 9 5 SSE 1015,8 8 0,0
16.04.2018 18:00:00 6,4 6,4 6 3 11 6 SW 1015,7 1,6 0,0
16.04.2018 17:00:00 5,9 5,9 6 3 10 5 S 1015,8 0,8 0,0
16.04.2018 16:00:00 6,9 6,9 6 3 9 5 SSE 1015,5 0,4 0,0
16.04.2018 15:00:00 6,9 6,9 8 4 13 7 SSE 1015,5 0,4 0,0
16.04.2018 14:00:00 6,2 6,2 9 5 11 6 S 1015,5 0,3 0,0
16.04.2018 13:00:00 6,3 6,3 10 5 13 7 S 1015,0 0,4 0,0
16.04.2018 12:00:00 5,9 5,9 11 6 14 8 S 1015,2 0,5 0,0
16.04.2018 11:00:00 5,9 5,9 11 6 15 8 SSE 1014,9 0,3 0,0
16.04.2018 10:00:00 5,8 5,8 14 7 17 9 SSE 1014,6 0,4 0,0
16.04.2018 09:00:00 5,7 5,7 11 6 14 8 SSE 1014,1 0,2 0,0
16.04.2018 08:00:00 5,7 5,7 10 5 14 7 SE 1013,8 0,2 0,0
16.04.2018 07:00:00 5,6 5,6 12 6 14 7 SE 1013,5 0,1 0,0
16.04.2018 06:00:00 5,8 5,8 10 5 16 8 SSE 1013,2 0,1 0,0
16.04.2018 05:00:00 5,7 5,7 11 6 16 9 SSE 1013,4 0,1 0,0
16.04.2018 04:00:00 5,7 5,7 13 7 15 8 SE 1013,5 0,1 0,0
16.04.2018 03:00:00 5,8 5,8 10 6 20 11 SSE 1013,4 0,1 0,0
16.04.2018 02:00:00 5,7 5,7 17 9 25 13 SSE 1013,6 0,1 0,0
16.04.2018 01:00:00 5,8 5,8 21 11 27 15 SSE 1013,5 0,1 0,0
16.04.2018 00:00:00 5,8 5,8 20 11 23 13 SSE 1013,9 0,1 0,0
15.04.2018 23:00:00 5,8 5,8 16 8 18 10 SSE 1013,9 0,1 0,0
15.04.2018 22:00:00 5,6 5,6 14 8 17 9 SE 1013,8 0,2 0,0
15.04.2018 21:00:00 5,6 5,6 13 7 18 10 SSE 1013,9 0,2 0,0
15.04.2018 20:00:00 5,6 5,6 12 7 28 15 SSE 1013,7 0,4 0,0
15.04.2018 19:00:00 5,8 5,8 26 14 34 18 SSE 1013,4 1,1 0,6
15.04.2018 18:00:00 5,7 5,7 24 13 29 16 SSE 1013,6 0,6 0,7
15.04.2018 17:00:00 5,5 5,5 26 14 32 18 SSE 1013,7 0,5 0,0
15.04.2018 16:00:00 6,0 6,0 15 8 26 14 SSE 1014,0 0,2 0,2
15.04.2018 15:00:00 5,8 5,8 18 10 33 18 S 1014,4 0,2 0,3
15.04.2018 14:00:00 6,1 5,8 11 6 18 10 SSE 1014,5 1,2 0,0
15.04.2018 13:00:00 6,4 6,3 14 8 23 13 S 1014,4 1,4 0,0
15.04.2018 12:00:00 6,2 6,2 6 4 22 12 SE 1014,5 1,0 0,0
15.04.2018 11:00:00 5,6 5,5 16 8 23 12 S 1014,6 0,3 0,0
15.04.2018 10:00:00 5,6 5,5 11 6 24 13 SSE 1014,7 1,8 0,0
15.04.2018 09:00:00 5,4 5,1 12 6 14 8 SSE 1014,3 0,2 0,0
15.04.2018 08:00:00 7,3 7,0 4 2 15 8 S 1014,2 3,1 0,0
15.04.2018 07:00:00 6,3 6,0 8 4 13 7 SSE 1014,7 1,9 0,0
15.04.2018 06:00:00 6,4 6,0 6 4 14 7 S 1014,7 2,2 0,0
15.04.2018 05:00:00 5,9 5,3 8 4 14 8 ESE 1014,9 3,6 0,0
15.04.2018 04:00:00 7,0 6,3 11 6 15 8 SE 1015,2 4,0 0,0
15.04.2018 03:00:00 7,0 6,3 13 7 18 10 SSE 1015,3 5 0,0
15.04.2018 02:00:00 7,7 6,2 14 8 18 10 SSE 1015,4 7 0,0
15.04.2018 01:00:00 7,6 6,4 12 6 17 9 SE 1015,6 7 0,0
15.04.2018 00:00:00 6,8 5,9 11 6 15 8 E 1015,7 6 0,0
14.04.2018 23:00:00 7,6 5,9 12 6 23 12 SE 1015,8 10 0,0
14.04.2018 22:00:00 9,1 6,5 11 6 17 9 SSE 1015,7 21 0,0

tt = Température de l'air
td = dewpoint
ff = Vitesse du vent
fx = gusts
dd = Direction du vent
ppp = reduced air pressure
vv = visibility
rr = Quantités de précipitations

stations d'obs. à proximité